Location: The Stocker AstroScience Center
(25.7579°N, 80.3725°W)
Time: 11:10:20

ISS - Pass Details

Date: 27 February 2018
Orbit: 403 x 406 km, 51.6° (Epoch: 23 March)

Event Time Altitude Azimuth Distance (km) Brightness Sun altitude
Rises 13:42:08 0° 322° (NW) 2,314 -0.1 52.3°
Reaches altitude 10° 13:44:13 10° 326° (NW) 1,452 -1.1 52.1°
Maximum altitude 13:47:27 62° 48° (NE) 454 -3.2 51.7°
Drops below altitude 10° 13:50:39 10° 130° (SE) 1,445 -0.8 51.3°
Sets 13:52:44 0° 133° (SE) 2,301 0.1 51.1°
